Volver al catálogo

CZ-6A DEB

ActivoPO
NORAD 60757·DEBRIS·🇨🇳 China

Lanzado Aug 6, 2024 desde Taiyuan Satellite Launch Center

Loading…

Próximos Pases (próximas 24 horas)

TLE

ActualizadoSource: Space-Track

Época: Sep 14, 2026, 00:33 UTC

1 60757U 24140EG  26257.02350486  .00000164  00000-0  75311-4 0  9998
2 60757  89.0913 273.8675 0059783 283.0822  76.3698 14.15871947108546

Sigue CZ-6A DEB en tiempo real con AllMySat

Download on the App Store